Regional Weather Roundup
Issued by NWS Boston, MA

Home | Current Version | Previous Version | Text Only | Print | Product List | Glossary On
Versions: 1 2 3 4 5 6 7 8 9 10 11 12 13 14 15 16 17 18 19 20 21 22 23 24 25 26 27 28 29 30 31 32 33 34 35 36 37 38 39 40 41 42 43 44 45 46 47 48 49 50
000
ASUS41 KBOX 050710
RWRBOX

REGIONAL WEATHER ROUNDUP
NATIONAL WEATHER SERVICE TAUNTON MA
300 AM EDT TUE MAY 05 2015

NOTE:  "FAIR" INDICATES FEW OR NO CLOUDS BELOW 12,000 FEET WITH NO
SIGNIFICANT WEATHER AND/OR OBSTRUCTIONS TO VISIBILITY.  THE FOLLOWING
OBSERVATION LOCATIONS DO NOT REPORT PRESENT WEATHER...PROVINCETOWN...
SMITHFIELD...BLOCK ISLAND...KEENE...AND OXFORD.

MAZALL-050800-
EASTERN MASSACHUSETTS

CITY           SKY/WX    TMP DP  RH WIND       PRES   REMARKS
BOSTON         PTCLDY    68  42  38 SW16      30.08S
BEVERLY        PTCLDY    69  41  36 SW15      30.05F
LAWRENCE       PTCLDY    69  43  38 SW10      30.07R
BEDFORD        MOCLDY    66  42  41 SW9       30.07S
BLUE HILL        N/A     66  41  40 SW16G28   30.09S
NORWOOD        PTCLDY    69  40  34 SW10G18   30.10R
MARSHFIELD     PTCLDY    64  43  45 SW10G20   30.11S
PLYMOUTH       CLEAR     63  43  48 SW13      30.13S
TAUNTON        CLEAR     60  44  55 SW10      30.12S
NEW BEDFORD    CLEAR     58  44  60 SW12      30.13S
$$

MAZALL-050800-
CAPE COD AND THE ISLANDS

CITY           SKY/WX    TMP DP  RH WIND       PRES   REMARKS
FALMOUTH         N/A    N/A N/A N/A MISG        N/A
HYANNIS        CLEAR     56  47  71 SW14      30.13F
CHATHAM        CLEAR     54  49  83 SW10G21   30.16S
PROVINCETOWN   PTCLDY    52  46  82 S15G21    30.11S
NANTUCKET      CLEAR     53  48  83 SW15      30.18S
MARTHAS VNYRD  CLEAR     55  32  41 SW13G22   30.17S
$$

MAZALL-050800-
CENTRAL AND WESTERN MASSACHUSETTS

CITY           SKY/WX    TMP DP  RH WIND       PRES   REMARKS
WORCESTER      PTCLDY    66  42  41 SW16      30.11S
FITCHBURG      PTCLDY    69  43  38 W7        30.08S
ORANGE         PTCLDY    61  43  51 S8        30.10S
SPRINGFIELD    MOCLDY    63  44  50 S5        30.10S
WESTFIELD      MOCLDY    65  44  46 S9        30.11S
NORTH ADAMS    CLOUDY    67  51  56 W13G20    30.13R
PITTSFIELD     CLOUDY    66  49  54 NW13      30.14R
$$

RIZALL-050800-
RHODE ISLAND

CITY           SKY/WX    TMP DP  RH WIND       PRES   REMARKS
PROVIDENCE     CLEAR     65  43  44 SW18      30.13S
NEWPORT        CLEAR     54  44  69 S8        30.14F
BLOCK ISLAND   CLEAR     52  43  71 SW16      30.17S
SMITHFIELD     PTCLDY    64  37  36 SW9       30.12R
WESTERLY       CLEAR     60  45  57 SW8       30.16F
$$

CTZALL-050800-
CONNECTICUT

CITY           SKY/WX    TMP DP  RH WIND       PRES   REMARKS
BRADLEY INTL   MOCLDY    65  44  46 S7        30.11S
HARTFORD       MOCLDY    66  44  45 S6        30.13S
BRIDGEPORT     CLEAR     59  48  67 SW5       30.14F
DANBURY        PTCLDY    66  43  43 W6        30.16R
GROTON         PTCLDY    59  44  57 SW12      30.15F
NEW HAVEN      MOCLDY    56  47  71 VRB3      30.15S
CHESTER        NOT AVBL
MERIDEN        MOCLDY    61  45  55 S7        30.14S
WILLIMANTIC    PTCLDY    67  43  41 SW7       30.14S
OXFORD           N/A     64  43  45 CALM      30.17S
$$

MEZ002-015-021-024-NHZ003-005-008-011-012-014-VTZ005-008-050800-
NORTHERN NEW ENGLAND

CITY           SKY/WX    TMP DP  RH WIND       PRES   REMARKS
PORTLAND ME    CLOUDY    69  43  38 SW7       29.99S
BANGOR ME      CLOUDY    59  46  62 S7        29.94S
CONCORD NH     MOCLDY    68  42  38 SW6       30.04S
MANCHESTER NH  PTCLDY    69  42  37 SW7       30.04S
NASHUA NH      PTCLDY    68  43  40 VRB3      30.07R
PORTSMOUTH NH  CLOUDY    68  43  40 SW10      30.01S
JAFFREY NH     MOCLDY    62  43  49 SW7       30.11R
KEENE NH       MOCLDY    66  43  42 SW7       30.09R
BURLINGTON VT  PTCLDY    62  52  69 NW9       30.11R
MT. WASHINGTON LGT RAIN  41  41 100 NW56G70     N/A  VSB 0   WCI  26
$$

NYZ052-076-050800-
EASTERN NEW YORK

CITY           SKY/WX    TMP DP  RH WIND       PRES   REMARKS
ALBANY         CLOUDY    66  52  60 W10       30.14R
NEW YORK CITY  PTCLDY    69  45  41 SW9G20    30.14F
$$

ANZALL-050800-
MARINE OBSERVATIONS

STATION/POSITION TIME  TEMP    WIND        PRES    VSBY  WAVE
                       AIR SEA DIR/SP/G                  HT/PER
                 (UTC) (F)     (DEG/KT/KT) (MB)    (MI)  (FT/S)
BOSTON BUOY      0650   56 46  230/ 12/ 14   N/A           3/ 4
BUZZARDS BAY     0600          230/ 20/ 22   N/A
NANTUCKET SOUND  0650   54 49  230/ 16/ 17   N/A           2/ 3
MASS BAY-STELLWA 0604   54 47  210/ 14/ 16   N/A    1 7/8  3/11
ISLE OF SHOALS   0600   64     220/ 20/ 20   N/A
S OF BLOCK IS    0608      46                N/A           4/ 5
$$

......................KEY.........................
  SKY/WX - SKY CONDITION/PRESENT WEATHER
  TMP    - TEMPERATURE IN FAHRENHEIT
  DWPT   - DEWPOINT IN FAHRENHEIT
  RH     - RELATIVE HUMIDITY IN PERCENT
  WIND   - DIRECTION AND SPEED IN MPH
  PRES   - MEAN SEA LEVEL PRESSURE IN INCHES OF HG
  WCI    - WIND CHILL INDEX
  VSB    - VISIBILITY IN MILES
  HX     - HEAT INDEX
  TC     - TEMPERATURE IN CELSIUS
  VRB    - VARIABLE WIND DIRECTION
  N/A    - NOT AVAILABLE


USA.gov is the U.S. government's official web portal to all federal, state and local government web resources and services.